EW0150 Weather Reports


time (UTC)temp
C
wind
direction
speed
KPH
gust
KPH
rain 1hr
cm
rain 24hr
cm
rain mn
cm
humidity
%
barometer
mb
20260506051004 15 254 14.5 25.7 0.00 0.00 0.00 69 1006.1
20260506045004 14 246 9.7 19.3 0.00 0.00 0.00 71 1006.0
20260506044005 14 227 12.9 24.1 0.00 0.00 0.00 71 1005.9
20260506043005 14 179 11.3 24.1 0.00 0.00 0.00 70 1005.9
20260506042005 13 194 8.0 16.1 0.00 0.00 0.00 71 1005.9
20260506041004 13 209 6.4 12.9 0.00 0.00 0.00 72 1005.8
20260506040008 13 219 9.7 19.3 0.00 0.00 0.00 71 1005.8
20260506035005 13 205 11.3 16.1 0.00 0.00 0.00 71 1005.6
20260506034006 13 204 11.3 16.1 0.00 0.00 0.00 72 1005.6
20260506033009 13 197 8.0 19.3 0.00 0.00 0.00 72 1005.6
20260506031007 12 223 4.8 8.0 0.00 0.00 0.00 72 1005.7
20260506030009 12 213 4.8 11.3 0.00 0.00 0.00 72 1005.6
20260506025006 12 227 6.4 9.7 0.00 0.00 0.00 72 1005.6
20260506023010 12 235 3.2 6.4 0.00 0.00 0.00 70 1005.8
20260506022008 12 200 4.8 6.4 0.00 0.00 0.00 71 1005.7
20260506021010 12 232 1.6 4.8 0.00 0.00 0.00 71 1005.8
20260506020013 12 232 1.6 3.2 0.00 0.00 0.00 71 1005.7
20260506015006 13 232 1.6 3.2 0.00 0.00 0.00 68 1005.7
20260506014008 13 232 3.2 4.8 0.00 0.00 0.00 67 1005.8
20260506013006 13 232 3.2 4.8 0.00 0.00 0.00 66 1005.7
20260506010009 13 215 3.2 8.0 0.00 0.00 0.00 68 1005.6
20260506005006 12 163 1.6 6.4 0.00 0.00 0.00 68 1005.5
20260506004006 13 163 1.6 3.2 0.00 0.00 0.00 67 1005.5
20260506003008 13 163 3.2 8.0 0.00 0.00 0.00 66 1005.5
20260506001009 14 177 3.2 6.4 0.00 0.00 0.00 61 1005.6
20260505235006 16 204 4.8 8.0 0.00 0.00 0.00 57 1005.8
20260505234006 16 225 4.8 9.7 0.00 0.00 0.00 56 1005.9
20260505231006 16 198 4.8 12.9 0.00 0.00 0.00 54 1006.0
20260505230009 16 175 3.2 11.3 0.00 0.00 0.00 53 1006.0
20260505225004 16 193 4.8 8.0 0.00 0.00 0.00 51 1006.1
20260505224004 16 178 4.8 8.0 0.00 0.00 0.00 51 1006.0
20260505223004 17 182 4.8 6.4 0.00 0.00 0.00 50 1006.1
20260505221004 17 173 8.0 12.9 0.00 0.00 0.00 48 1006.1
20260505215006 18 173 9.7 14.5 0.00 0.00 0.00 46 1006.1
20260505214006 18 182 9.7 16.1 0.00 0.00 0.00 46 1006.1
20260505212005 19 149 16.1 29.0 0.00 0.00 0.00 43 1006.0
20260505211005 19 165 16.1 32.2 0.00 0.00 0.00 43 1006.1
20260505205005 20 171 19.3 40.2 0.00 0.00 0.00 43 1006.3
20260505204005 20 190 19.3 30.6 0.00 0.00 0.00 44 1006.4
20260505203005 20 186 22.5 41.8 0.00 0.00 0.00 44 1006.3
20260505202005 20 162 19.3 37.0 0.00 0.00 0.00 46 1006.2
20260505201007 20 175 14.5 29.0 0.00 0.00 0.00 47 1006.2
20260505200009 20 161 11.3 16.1 0.00 0.00 0.00 47 1006.2
20260505195005 20 171 11.3 16.1 0.00 0.00 0.00 46 1006.2
20260505194007 20 167 14.5 29.0 0.00 0.00 0.00 45 1006.1
20260505193009 20 192 14.5 25.7 0.00 0.00 0.00 45 1006.2
20260505192004 20 167 12.9 19.3 0.00 0.00 0.00 44 1006.2
20260505190008 21 147 11.3 17.7 0.00 0.00 0.00 44 1006.2
20260505185005 21 157 14.5 19.3 0.00 0.00 0.00 43 1006.2
20260505184004 21 162 12.9 16.1 0.00 0.00 0.00 42 1006.2
20260505183005 21 160 12.9 20.9 0.00 0.00 0.00 41 1006.1
20260505182004 21 180 14.5 24.1 0.00 0.00 0.00 41 1006.1
20260505181005 22 201 12.9 22.5 0.00 0.00 0.00 40 1006.0
20260505180009 22 172 11.3 19.3 0.00 0.00 0.00 40 1006.0
20260505175007 22 195 16.1 24.1 0.00 0.00 0.00 39 1006.0
20260505173005 23 197 17.7 33.8 0.00 0.00 0.00 37 1006.0
20260505171004 23 169 16.1 24.1 0.00 0.00 0.00 30 1006.0
20260505170009 24 186 16.1 32.2 0.00 0.00 0.00 27 1005.9
20260505164004 25 155 19.3 29.0 0.00 0.00 0.00 25 1005.9
20260505163008 25 173 20.9 45.1 0.00 0.00 0.00 23 1005.9
20260505161005 25 186 20.9 38.6 0.00 0.00 0.00 21 1005.9
20260505153004 26 165 20.9 40.2 0.00 0.00 0.00 23 1006.2
20260505125006 26 156 17.7 32.2 0.00 0.00 0.00 19 1006.9
20260505124006 27 167 25.7 43.5 0.00 0.00 0.00 17 1006.9
20260505123007 27 198 29.0 57.9 0.00 0.00 0.00 17 1007.1
20260505122007 27 192 29.0 41.8 0.00 0.00 0.00 17 1007.1
20260505121007 27 144 22.5 38.6 0.00 0.00 0.00 18 1007.2
20260505120010 27 193 24.1 41.8 0.00 0.00 0.00 18 1007.4
20260505115007 27 200 29.0 57.9 0.00 0.00 0.00 16 1007.3
20260505114007 27 180 27.4 41.8 0.00 0.00 0.00 18 1007.4
20260505113007 27 194 25.7 45.1 0.00 0.00 0.00 18 1007.4
20260505112006 26 163 29.0 59.5 0.00 0.00 0.00 18 1007.5
20260505111006 25 196 22.5 45.1 0.00 0.00 0.00 21 1007.6
20260505102006 26 240 16.1 24.1 0.00 0.00 0.00 27 1008.2
20260505101006 26 174 17.7 30.6 0.00 0.00 0.00 25 1008.2
20260505100008 26 188 14.5 30.6 0.00 0.00 0.00 25 1008.3
20260505095005 25 227 14.5 27.4 0.00 0.00 0.00 27 1008.4
20260505094005 25 185 20.9 30.6 0.00 0.00 0.00 26 1008.4
20260505093005 25 177 24.1 40.2 0.00 0.00 0.00 25 1008.4
20260505092005 25 159 25.7 38.6 0.00 0.00 0.00 25 1008.4
20260505091005 25 193 22.5 35.4 0.00 0.00 0.00 27 1008.5
20260505090007 25 209 22.5 40.2 0.00 0.00 0.00 28 1008.5
20260505085005 25 151 22.5 41.8 0.00 0.00 0.00 27 1008.6
20260505084005 24 171 22.5 38.6 0.00 0.00 0.00 28 1008.8
20260505083005 24 184 22.5 35.4 0.00 0.00 0.00 29 1008.9
20260505080010 23 162 17.7 32.2 0.00 0.00 0.00 34 1009.0
20260505074005 22 182 16.1 30.6 0.00 0.00 0.00 34 1009.3
20260505073005 22 120 14.5 24.1 0.00 0.00 0.00 36 1009.4
20260505072005 21 142 11.3 19.3 0.00 0.00 0.00 38 1009.5
20260505071005 21 119 12.9 20.9 0.00 0.00 0.00 39 1009.6
20260505070008 21 141 11.3 19.3 0.00 0.00 0.00 38 1009.7
20260505065005 21 153 12.9 22.5 0.00 0.00 0.00 40 1009.8
20260505064005 20 145 11.3 17.7 0.00 0.00 0.00 42 1009.8
20260505062005 19 136 9.7 17.7 0.00 0.00 0.00 44 1009.9